Theta_e
317 320 322 322 320 317 316 315 315 314 314 313 312 311 311 309 309 308 307 307 307 306 306 306 306 306 306 307 307 307 307 308 308 308 308 308 309 309 309 309 309 309 309 309 309 309 308 308 307 307 306 306 306 306 306 306 306 306 306 306 305 304 304 304 304 304 304 305 306
318 319 319 318 316 315 313 313 312 311 311 311 310 309 308 307 306 306 305 305 305 305 305 305 305 305 305 305 305 306 306 306 306 307 307 307 307 307 307 307 308 308 308 307 307 307 306 306 306 306 305 305 305 305 305 305 305 304 304 304 304 304 304 303 303 304 304 304 304
317 317 316 314 313 312 311 310 309 309 308 308 307 307 306 306 305 304 304 304 305 305 304 304 304 304 304 304 304 305 305 305 305 305 305 305 305 305 306 306 306 306 306 306 306 306 306 305 305 305 305 304 304 304 304 304 304 304 303 304 304 304 303 303 303 303 303 303 302
314 314 313 311 311 309 309 308 307 307 306 306 306 305 305 304 304 304 303 303 303 303 303 303 303 303 303 303 303 303 304 304 304 304 303 304 304 304 304 304 304 304 304 304 304 304 304 304 304 304 303 303 303 303 303 303 303 303 303 303 303 303 302 302 302 302 302 301 302
309 310 310 309 309 308 307 307 306 306 305 305 305 304 304 304 304 303 303 302 302 302 303 303 302 302 302 302 302 302 302 302 303 302 302 302 302 302 303 303 303 303 303 303 303 303 303 303 303 302 302 302 302 302 302 301 301 301 301 301 301 301 301 301 301 301 301 301 301
305 305 306 306 306 306 305 305 305 304 304 304 303 303 302 302 302 302 302 301 301 302 302 302 302 302 301 301 301 301 300 301 301 301 301 301 301 301 301 301 301 301 301 302 302 302 302 302 301 301 301 301 301 300 299 298 298 298 298 298 299 299 300 300 300 301 300 300 300
302 302 302 303 303 303 303 303 303 302 302 302 301 300 300 300 300 300 300 300 300 300 300 300 300 300 300 299 299 299 299 299 299 299 299 299 299 300 300 299 299 299 300 300 300 300 300 300 300 300 300 300 299 298 298 298 298 298 297 297 298 299 299 298 299 299 298 298 297
299 299 299 299 300 300 300 300 300 300 300 299 298 298 298 298 298 298 298 298 297 298 298 298 297 297 297 297 297 297 297 297 297 297 297 297 297 298 297 298 297 297 298 298 298 298 298 298 298 298 297 298 298 297 297 298 298 298 298 298 298 298 297 297 297 297 296 296 295
297 297 297 297 297 297 297 297 297 297 297 296 296 296 296 296 296 296 296 295 296 296 296 296 296 296 296 295 295 295 295 295 295 295 295 295 295 295 295 295 295 295 295 296 296 296 296 296 295 295 295 295 295 295 295 296 297 297 296 296 296 295 295 295 294 294 294 294 293
296 296 295 295 295 295 295 294 294 294 294 294 294 294 295 295 294 294 294 294 295 295 294 294 294 294 294 294 294 294 294 294 294 293 293 293 293 293 293 293 293 293 293 293 293 293 293 293 292 292 292 292 292 292 292 293 293 293 293 293 292 291 291 291 291 291 292 292 292
294 294 294 294 294 294 294 293 293 293 293 292 292 293 293 293 293 293 293 293 293 293 293 293 293 293 293 293 293 293 293 293 293 292 292 292 292 292 291 291 291 291 291 291 291 291 291 291 290 290 290 290 290 290 290 289 289 289 289 289 289 289 288 289 289 290 290 290 290
293 293 293 293 293 293 293 292 292 292 291 291 291 291 292 292 292 292 292 292 292 292 292 293 292 292 292 292 292 292 292 292 292 292 291 291 291 291 291 290 290 290 290 290 290 290 290 289 289 288 288 288 288 288 288 287 287 287 287 287 287 287 287 287 287 288 288 288 289
292 292 292 292 292 292 292 291 291 291 291 291 291 291 291 291 292 291 291 291 291 291 291 291 291 291 291 291 291 291 291 291 291 291 291 290 290 290 290 289 289 289 289 288 289 288 288 288 287 287 286 286 286 286 286 286 286 285 285 285 285 285 285 285 286 286 286 287 287
292 292 292 292 292 291 291 291 290 290 290 290 290 290 290 290 291 291 290 290 290 290 290 290 290 290 290 290 290 290 290 290 290 290 290 290 290 289 289 289 288 288 288 288 287 287 287 286 286 285 285 285 285 285 285 284 284 284 284 284 284 284 284 284 284 284 285 285 285
291 291 291 291 291 290 290 290 290 290 289 289 289 289 290 290 290 290 290 289 289 289 289 289 289 289 289 289 289 289 289 289 289 289 289 289 289 289 289 288 288 288 287 287 287 286 285 285 285 284 284 284 284 283 283 284 283 283 283 283 283 283 283 283 283 283 283 284 283
289 289 290 290 289 289 289 289 289 289 289 289 289 289 289 289 290 290 289 289 288 288 288 288 288 288 288 288 288 288 288 288 288 288 288 288 288 288 288 288 287 287 287 286 286 285 285 284 284 284 284 283 283 283 283 283 283 283 282 282 282 282 282 283 282 282 282 283 282
288 288 288 288 288 288 288 288 288 288 288 288 289 289 289 289 289 289 289 289 288 288 287 287 287 287 287 288 288 287 287 287 287 287 287 287 287 287 286 286 286 286 285 285 285 285 284 284 284 284 283 283 283 283 283 282 282 282 282 281 282 281 282 282 282 281 281 281 282
287 288 288 288 287 287 287 287 287 287 288 288 288 288 289 289 288 288 288 288 288 287 286 286 286 286 286 286 286 286 286 286 285 285 285 285 285 285 284 284 284 284 283 284 284 284 284 283 283 283 283 283 283 282 282 282 281 281 281 281 281 280 280 281 280 280 280 280 281
287 287 287 287 287 287 287 287 287 287 287 287 287 287 287 287 287 287 287 287 287 286 286 285 285 285 285 285 285 285 285 284 284 284 284 283 283 283 283 283 282 282 282 283 283 283 283 283 283 283 283 283 282 282 281 281 281 281 280 280 280 280 280 280 280 280 280 280 280
286 286 286 286 286 287 286 286 286 286 286 286 286 286 286 285 285 285 285 285 285 285 285 285 284 284 284 284 284 284 284 284 283 283 283 283 283 283 283 283 283 282 282 282 282 282 283 283 283 283 282 282 282 281 281 280 280 280 280 280 279 279 279 279 279 279 279 279 279
286 286 286 286 286 286 286 286 286 286 285 285 285 285 284 284 284 284 284 284 284 284 283 283 283 283 283 283 283 283 283 283 283 283 283 283 283 283 283 283 283 283 283 283 283 283 283 283 282 282 282 282 281 281 280 280 280 279 279 279 279 278 278 278 278 278 278 278 278
285 285 285 285 285 285 285 285 285 285 284 284 284 284 284 283 283 283 283 283 283 283 282 282 282 282 282 282 282 282 282 282 282 282 282 282 282 283 283 283 284 284 284 283 283 283 283 282 282 282 281 281 280 280 280 280 279 278 278 278 277 277 277 277 277 277 277 277 277
285 285 285 285 285 285 285 284 284 284 284 284 283 283 283 283 283 283 283 283 282 282 282 281 281 281 281 281 281 281 281 281 281 281 281 281 281 282 282 283 283 283 283 283 283 283 282 282 281 281 280 280 279 279 279 279 278 278 277 276 276 276 276 276 276 276 276 276 276
284 284 284 284 284 284 284 284 283 283 283 283 283 283 283 283 283 282 282 282 281 281 281 281 281 280 280 280 280 280 280 280 280 280 280 280 280 280 281 282 282 282 282 284 284 284 283 282 281 280 279 279 279 278 278 278 277 277 276 276 276 276 276 276 275 275 275 275 275
283 283 283 283 283 283 283 283 282 282 282 282 282 282 282 282 282 282 281 281 281 280 280 280 280 279 279 279 279 278 278 278 278 278 278 279 279 279 280 280 280 280 282 288 290 289 288 286 283 281 279 278 278 278 278 277 277 276 276 276 276 276 275 275 276 275 275 275 275
282 282 282 282 282 282 282 281 281 281 281 281 281 281 281 281 281 280 280 279 279 279 279 279 279 280 280 278 278 278 277 277 277 277 277 278 278 279 279 280 280 280 283 291 292 292 291 290 287 284 280 277 278 278 277 276 276 276 276 276 275 275 275 275 275 275 275 275 275
281 281 281 281 281 281 281 281 280 280 280 280 280 280 280 280 279 279 278 278 278 278 278 279 279 280 280 278 278 278 277 277 277 277 277 277 278 278 278 279 279 281 286 293 293 293 292 291 289 286 282 278 277 277 277 276 276 276 275 275 274 274 274 274 274 275 275 275 275
280 280 280 280 280 280 280 280 280 279 279 278 278 278 278 278 278 278 278 277 277 277 278 278 278 279 279 279 278 277 277 277 277 277 277 277 278 278 278 278 278 282 288 295 294 293 292 291 290 288 285 281 277 276 276 276 276 275 275 274 274 274 274 274 274 274 274 274 274
280 280 279 279 279 279 279 279 278 278 278 277 277 278 278 278 277 277 277 277 277 277 277 277 278 278 278 277 277 277 276 276 277 277 277 277 277 278 278 278 279 283 290 295 294 293 292 291 290 289 287 284 279 276 276 276 276 275 275 274 273 273 273 273 273 273 273 273 274
279 279 279 278 278 278 278 278 277 277 277 277 277 277 277 277 277 277 276 276 276 276 276 276 277 277 276 276 276 276 276 276 276 276 276 276 277 278 278 279 280 285 291 294 293 293 292 291 290 289 288 286 281 277 275 275 275 275 274 274 273 273 273 273 273 273 273 273 273
278 278 278 278 277 277 277 277 277 277 277 278 277 277 277 277 276 276 275 275 276 276 277 276 276 276 275 275 275 275 275 275 275 276 276 276 277 277 277 278 279 286 293 294 293 292 291 290 289 289 288 287 282 278 275 275 274 274 274 273 273 273 273 273 273 273 273 273 273
277 277 277 277 277 276 276 276 277 277 277 277 277 277 276 276 275 275 275 275 275 275 276 276 275 275 275 275 275 275 275 275 275 276 276 275 275 275 276 278 279 286 293 294 293 292 291 290 289 288 288 287 283 278 274 274 274 273 273 273 273 273 273 274 274 274 273 273 273
277 277 277 277 277 276 276 276 276 276 276 276 276 276 276 275 275 275 275 275 275 275 274 275 275 274 274 274 274 275 275 275 275 275 276 275 275 275 276 277 278 285 292 293 292 291 290 289 288 288 288 287 282 276 273 273 273 273 273 273 273 273 273 274 274 274 274 274 273
277 277 276 276 276 276 275 275 275 275 275 275 275 275 275 275 275 275 275 275 275 274 274 274 274 273 273 273 274 274 275 276 275 274 274 274 275 275 276 276 278 285 291 291 291 291 290 289 288 288 288 287 280 276 273 273 273 273 273 273 273 273 273 274 274 274 274 274 274
275 275 275 275 275 275 275 275 275 275 275 275 274 274 274 274 274 274 275 276 275 274 273 273 273 273 273 273 274 274 275 275 274 274 274 274 275 275 275 275 277 283 290 291 291 291 290 289 288 288 287 285 279 275 273 273 273 273 273 273 274 274 274 274 274 274 274 274 274
275 274 274 274 274 274 274 274 274 274 274 274 274 274 273 273 273 273 274 276 275 273 273 273 272 272 273 272 273 274 274 273 273 274 275 275 274 274 274 274 275 281 288 290 290 291 291 290 289 288 286 282 278 275 274 273 273 273 273 274 275 275 275 275 275 275 274 274 274
274 274 274 274 274 274 274 274 274 273 273 273 273 273 272 272 272 273 274 275 273 272 272 272 272 272 271 271 272 272 272 272 273 274 274 275 275 274 274 274 274 278 285 290 290 290 291 290 289 287 285 281 277 275 275 275 274 274 274 275 275 275 275 275 275 275 274 274 276
273 273 273 273 273 273 273 273 273 273 272 272 272 272 272 272 271 272 273 274 272 271 271 271 271 271 271 271 271 271 271 271 273 273 273 273 274 274 274 273 274 277 282 289 290 290 291 291 289 287 285 281 277 276 276 276 275 275 275 275 275 275 275 275 275 275 275 275 280
272 272 272 272 272 272 272 272 272 272 271 271 271 271 271 271 271 272 273 273 271 270 271 270 271 271 272 273 272 271 271 270 272 273 273 272 274 276 276 274 274 276 281 288 289 290 290 290 289 288 285 282 278 276 276 276 276 275 275 274 274 275 275 275 274 274 274 275 281
272 272 272 272 272 271 271 271 271 270 270 270 271 271 271 271 272 272 272 271 270 270 270 270 270 271 273 275 272 271 270 270 270 271 273 273 275 278 278 275 274 276 280 286 288 289 289 288 288 288 286 282 278 276 276 276 276 275 274 274 274 274 274 274 274 274 274 274 278
271 272 272 271 271 271 271 271 270 270 270 270 270 271 272 272 272 271 271 270 270 270 270 270 270 271 272 275 272 271 270 271 270 271 272 274 275 276 277 274 274 275 278 283 287 288 288 288 288 288 287 284 278 276 276 276 275 275 275 274 274 275 274 274 274 274 274 274 275
Wind_Speed
4 3 2 1 2 3 3 3 3 3 3 4 4 4 4 4 4 4 3 3 3 3 3 3 3 4 5 7 6 6 6 7 8 8 8 8 7 7 8 8 8 8 8 8 7 7 7 6 6 6 5 5 5 4 4 4 5 5 6 6 5 5 6 6 6 6 6 6 5
4 2 2 3 4 4 4 4 3 3 4 4 5 5 4 4 4 4 4 4 3 3 3 3 4 5 6 7 7 7 7 7 8 8 8 8 8 8 8 8 8 7 7 7 7 6 6 7 7 6 5 5 4 4 4 4 5 6 7 7 6 5 5 6 6 6 6 6 5
3 4 4 4 5 5 5 4 4 5 5 5 5 5 5 4 4 4 4 4 4 4 4 3 4 5 7 7 7 7 7 7 7 7 7 7 8 8 8 8 8 7 7 6 6 6 7 7 7 6 5 4 4 4 4 5 6 6 7 7 5 4 4 5 5 5 5 5 5
5 5 5 5 6 6 6 5 6 6 6 5 6 6 5 5 5 5 5 5 5 5 4 4 4 5 6 7 8 8 7 7 8 8 8 8 8 8 8 8 8 8 7 7 8 8 9 8 7 6 5 5 5 5 5 5 6 6 6 5 5 4 4 4 4 4 4 4 4
7 6 5 5 6 7 7 6 7 6 6 5 5 5 5 5 5 5 5 5 5 5 5 5 5 5 6 7 9 9 9 9 9 8 8 9 9 8 8 8 8 8 8 8 9 9 9 8 6 5 5 5 5 5 5 5 6 6 5 4 4 4 4 4 3 3 3 3 3
8 7 7 6 7 8 7 7 7 7 6 5 6 7 6 5 5 5 5 5 6 6 7 7 6 6 7 8 9 9 9 9 8 9 9 9 9 9 9 9 9 9 9 9 9 9 8 7 5 5 5 5 5 5 4 5 5 5 5 4 4 4 4 4 4 3 4 4 4
9 9 8 8 9 8 7 7 7 7 7 7 9 9 9 7 7 7 7 6 6 6 7 6 6 6 7 8 9 9 9 9 9 10 10 9 9 9 10 10 10 10 10 9 9 8 6 6 5 5 5 5 4 4 4 4 5 5 6 5 5 4 4 4 3 3 4 5 5
10 10 10 10 10 10 9 8 7 7 7 8 10 11 11 10 9 8 8 7 7 7 7 6 7 7 8 8 9 9 9 10 10 10 10 9 10 10 10 11 11 11 10 9 8 7 6 5 5 4 4 4 4 4 5 5 6 7 8 7 6 5 4 3 3 3 4 5 4
10 10 11 11 11 11 10 10 9 9 9 10 11 11 11 11 10 9 8 7 7 7 7 7 8 8 9 10 10 10 10 10 10 10 10 10 10 10 10 11 11 11 10 9 8 7 7 5 5 5 5 5 5 5 6 8 9 9 9 7 6 5 5 4 4 4 4 5 5
10 10 11 11 11 11 11 11 10 11 12 12 12 12 12 11 10 9 7 6 7 8 8 7 8 9 10 11 10 10 9 9 10 10 10 10 11 11 11 10 10 10 9 8 7 7 7 7 7 7 7 7 7 8 9 9 10 10 8 6 6 6 6 6 5 5 5 5 6
11 11 10 10 11 11 11 11 10 11 11 12 12 12 12 11 10 8 7 7 8 9 9 8 8 9 9 10 10 9 9 9 9 10 11 11 11 11 11 10 10 10 9 8 7 7 7 8 9 9 9 8 9 9 9 10 10 10 9 6 7 7 7 7 6 6 5 6 6
11 11 11 10 11 11 11 11 10 10 11 11 12 11 11 10 9 9 9 9 10 10 9 8 8 9 9 9 9 9 9 10 11 11 11 12 12 12 11 11 11 11 10 9 8 8 8 8 9 10 10 10 8 8 9 10 10 10 9 8 8 8 8 8 7 6 5 6 6
11 11 11 11 11 11 11 11 10 10 11 11 11 10 9 9 9 9 9 10 10 9 8 8 9 10 10 10 9 9 9 10 11 12 12 12 12 12 12 11 11 11 11 10 9 8 8 9 10 11 11 10 9 9 9 10 9 9 9 8 8 8 8 8 7 6 6 6 6
12 12 11 11 11 11 11 10 10 10 11 11 10 9 9 8 8 9 9 9 9 9 9 9 9 10 10 10 10 10 10 10 11 12 13 12 11 11 11 11 11 11 11 9 9 9 9 9 9 10 11 11 10 9 9 9 9 8 8 8 8 8 7 7 7 6 6 6 6
12 12 12 12 11 11 10 10 10 10 10 11 9 8 8 7 8 8 9 9 9 9 8 9 9 10 11 11 10 10 10 11 12 12 12 12 11 11 10 10 10 10 10 9 8 8 9 9 9 10 10 10 9 9 8 8 8 8 7 7 7 7 7 7 6 6 6 6 6
13 13 12 12 12 11 10 10 9 9 10 10 9 8 7 7 8 9 9 10 9 9 9 9 9 9 10 11 11 11 11 11 12 12 11 11 10 10 10 9 9 9 9 9 8 8 8 8 9 9 9 9 9 8 8 8 8 8 7 7 7 7 7 6 6 6 6 6 6
13 13 13 13 12 12 11 10 9 9 10 10 9 8 8 7 8 9 10 10 9 9 10 10 9 9 10 10 10 10 10 11 11 10 10 9 9 9 8 8 8 8 8 9 9 9 8 8 8 8 8 8 8 8 7 7 7 7 7 7 7 7 6 6 6 6 5 6 6
14 13 13 13 13 13 12 11 11 11 11 11 10 9 8 8 9 9 10 10 10 10 11 11 10 10 10 10 10 9 9 10 10 9 8 8 7 7 7 7 7 7 7 8 8 9 8 8 8 8 8 8 7 7 7 7 7 7 7 7 7 6 6 6 6 5 5 6 6
14 13 13 13 13 13 13 13 13 13 12 12 11 10 10 10 10 10 10 10 10 11 11 11 11 11 11 11 10 9 9 9 9 8 8 7 7 7 7 7 7 7 7 8 8 8 8 8 8 7 7 7 7 6 6 6 6 7 7 7 7 6 6 6 6 6 6 6 6
14 14 13 13 13 13 13 13 13 13 13 12 12 12 11 11 11 11 11 11 10 11 11 10 10 10 10 10 10 9 9 8 8 8 7 7 7 7 7 7 7 7 7 8 8 8 8 8 7 7 7 7 7 7 7 7 7 7 7 6 6 6 6 6 6 6 6 6 6
14 14 14 13 14 13 13 13 13 13 13 13 12 12 12 12 12 12 12 11 11 11 11 10 10 10 10 10 10 9 8 7 7 7 7 6 7 6 6 6 7 7 8 8 9 9 8 8 7 7 7 7 7 7 7 7 7 7 7 6 6 6 6 6 6 6 6 6 6
13 13 14 13 13 13 13 13 13 13 13 12 12 12 12 12 12 11 11 11 11 11 10 10 9 9 9 9 9 9 8 7 7 6 6 6 6 6 6 6 7 8 9 9 9 9 8 8 7 7 7 7 7 7 7 7 7 7 7 6 6 6 6 6 6 6 6 5 5
13 13 13 13 13 13 13 12 12 12 12 12 12 12 12 12 11 11 10 10 10 10 10 9 9 9 9 9 9 8 8 8 7 6 6 5 5 5 6 6 7 8 8 8 8 8 8 7 7 7 7 7 7 7 7 7 7 6 6 6 6 6 6 6 6 5 5 5 5
13 12 12 11 12 13 12 12 12 12 12 12 11 11 12 11 11 11 11 11 10 10 9 8 8 9 9 9 9 9 8 8 7 7 6 6 6 6 6 6 6 6 6 7 8 8 8 6 6 6 6 7 7 7 6 6 6 5 5 6 6 6 6 6 6 6 6 6 5
13 12 12 12 12 12 12 12 12 12 12 11 11 11 11 11 11 11 11 11 10 10 9 8 8 8 8 8 8 8 8 8 7 7 7 7 7 7 7 6 4 3 3 7 12 14 12 10 7 6 5 6 6 6 5 5 5 5 5 5 5 5 6 6 7 7 6 6 6
12 12 12 12 12 12 12 12 12 12 11 11 11 11 11 10 10 10 11 10 9 8 8 8 8 8 8 8 8 8 8 7 7 7 7 7 8 8 7 6 5 3 3 9 15 16 15 14 12 9 6 4 5 5 4 4 4 4 4 4 4 5 5 6 6 7 7 6 6
11 11 12 12 12 13 12 12 12 11 11 11 11 11 10 9 9 10 10 9 8 8 8 8 8 8 8 8 9 9 8 6 6 7 7 7 8 8 7 6 5 3 4 11 15 16 15 15 14 11 8 4 4 4 4 3 3 4 4 4 4 4 4 5 5 6 6 6 6
11 11 12 12 13 12 12 12 12 11 11 10 10 10 9 9 9 9 9 8 8 7 7 7 6 6 6 7 8 9 8 8 7 7 8 8 9 8 8 6 5 4 6 14 15 15 15 14 13 12 9 6 4 3 4 4 3 3 3 3 4 4 4 4 4 4 5 6 6
11 11 12 13 13 12 12 12 11 11 10 9 9 9 9 9 9 9 9 9 9 8 7 5 5 5 6 7 8 8 9 9 8 8 8 9 9 9 8 8 6 5 7 13 14 14 14 14 13 12 11 9 5 3 3 3 3 3 3 3 3 3 3 3 3 4 4 5 5
11 12 12 13 13 12 11 11 10 9 8 8 8 9 9 10 10 10 10 10 9 8 7 5 6 7 8 8 8 8 9 8 8 8 9 10 10 9 9 8 7 5 7 13 13 14 14 14 13 13 12 11 7 4 3 3 3 3 3 3 3 3 3 3 4 4 4 4 4
11 12 12 13 12 12 11 10 9 9 9 9 9 10 10 11 11 10 9 9 8 8 7 8 9 10 9 8 8 8 8 8 8 8 9 9 9 9 8 8 7 6 9 14 14 14 14 14 13 13 12 11 7 5 3 3 4 3 3 3 3 3 3 3 4 4 4 4 4
11 11 12 13 12 11 10 9 9 9 10 10 10 11 11 11 9 8 7 7 7 8 9 10 10 10 9 8 8 8 8 8 8 8 8 8 7 7 7 8 7 8 11 15 15 15 14 13 13 13 12 12 8 5 4 4 4 3 3 3 3 3 3 3 3 4 4 4 4
11 11 12 12 11 10 9 9 9 9 10 10 11 11 10 10 8 7 7 7 7 8 9 9 10 9 8 7 7 7 7 8 8 8 8 7 7 8 8 8 7 8 12 15 14 14 14 13 12 13 13 12 8 5 4 4 4 3 3 3 3 3 3 3 3 3 4 4 4
10 11 11 11 10 10 9 9 9 9 10 11 11 10 10 8 8 8 7 6 6 7 7 7 7 7 6 6 6 6 7 8 7 7 7 7 8 9 8 7 6 8 12 14 13 13 12 12 12 12 12 11 7 5 4 4 4 4 4 4 3 3 3 3 3 3 3 4 4
10 10 10 10 10 9 9 9 9 10 10 11 10 10 9 7 7 7 6 7 7 7 6 6 6 6 6 6 6 7 7 8 7 7 8 8 8 9 9 8 7 10 13 13 12 11 11 11 12 13 12 9 6 5 4 4 4 4 4 4 4 4 4 4 4 4 4 4 4
9 10 10 10 10 9 9 9 9 10 10 10 9 9 8 6 6 5 6 7 7 6 6 6 6 6 6 6 7 7 7 7 7 8 8 8 9 9 9 9 9 12 13 12 11 11 10 11 13 13 12 8 5 4 4 3 3 3 4 4 4 5 5 5 5 5 5 5 5
8 9 9 10 9 9 9 9 9 9 9 9 8 7 6 6 5 5 5 6 6 6 6 5 6 6 6 6 6 6 6 6 7 8 8 9 8 8 8 9 9 11 12 12 12 11 11 13 14 13 11 6 4 3 3 3 2 3 3 4 4 4 5 5 5 6 6 7 7
8 8 8 9 9 8 8 8 9 9 9 8 7 6 5 5 5 5 5 6 6 6 5 5 5 5 5 5 6 6 7 7 8 8 8 8 8 8 8 8 8 9 10 12 12 12 13 14 15 13 10 6 4 3 2 2 2 2 3 3 4 4 5 5 5 5 6 7 10
7 7 8 8 8 8 8 8 8 8 7 7 6 6 5 5 4 4 4 5 5 5 5 5 4 4 4 6 6 7 7 8 8 8 8 7 8 9 9 8 7 8 10 12 13 13 13 14 14 13 10 6 3 2 2 2 2 3 3 3 4 5 5 5 5 5 5 7 11
7 7 8 8 8 8 8 8 7 7 6 6 6 5 5 4 4 4 4 4 4 4 4 4 4 4 5 7 7 7 8 8 7 8 8 8 9 10 11 8 8 8 10 12 14 14 13 13 13 12 10 6 4 3 2 3 3 3 3 4 4 4 5 5 4 4 5 5 8
6 7 7 7 7 7 7 8 7 6 5 5 5 5 4 4 4 4 4 5 5 5 4 4 5 5 6 7 7 7 7 8 7 7 7 8 9 10 10 8 8 8 9 11 13 14 14 14 14 13 11 7 4 3 3 3 3 3 4 4 4 4 4 4 4 4 4 5 5
Wind_Direction
183 187 186 162 128 106 91 81 77 82 91 98 95 90 84 80 78 71 64 60 67 71 71 72 76 76 73 66 63 63 66 70 72 72 72 71 73 75 76 75 75 77 81 85 87 87 87 85 84 80 73 67 65 62 61 61 67 70 71 70 69 68 67 67 64 60 57 57 61
169 149 104 92 95 96 96 95 91 87 87 89 92 91 89 86 84 80 73 67 69 70 71 69 70 73 73 71 67 66 66 69 73 75 75 72 71 71 72 73 74 77 82 88 91 91 88 85 83 80 76 70 70 68 66 62 68 71 71 69 69 67 66 65 62 60 60 60 62
103 96 92 99 105 107 106 102 95 89 86 84 87 89 90 88 87 84 80 75 72 70 69 67 66 69 72 72 68 66 65 68 70 73 73 71 68 68 70 74 75 76 78 82 84 85 84 81 80 80 81 81 78 75 71 65 68 70 70 67 65 65 65 64 60 58 59 60 61
72 79 89 97 104 106 106 103 99 95 93 91 91 90 89 87 87 86 85 81 74 69 66 66 67 68 70 72 70 68 66 66 68 69 69 67 65 65 68 72 74 75 76 77 77 77 77 77 78 81 84 86 82 78 74 72 72 72 72 67 67 68 70 70 65 64 64 66 64
66 67 72 82 88 92 95 97 99 98 98 97 97 93 90 87 86 85 83 79 74 70 67 66 68 70 70 72 71 69 67 66 67 67 66 64 62 61 63 66 69 71 71 71 70 71 73 76 79 82 81 80 77 76 77 80 81 81 80 75 74 75 77 77 72 69 68 69 66
68 65 64 68 74 79 83 87 91 94 96 96 94 91 88 84 81 79 77 77 76 72 68 66 68 69 71 72 71 69 67 63 63 64 65 64 62 61 61 62 62 62 63 63 64 66 70 75 79 80 78 78 76 73 74 79 85 87 86 79 73 71 69 68 68 67 68 69 69
70 67 64 62 66 69 74 78 84 89 90 88 86 85 84 81 78 76 75 74 72 69 65 62 61 65 69 71 71 69 67 64 62 62 62 63 62 61 61 60 59 57 57 57 60 61 64 70 76 78 78 79 76 70 68 77 84 84 80 73 65 60 57 56 56 61 66 69 70
71 68 65 63 63 65 67 68 75 82 84 82 81 81 81 79 77 76 74 70 69 69 67 64 61 64 68 71 71 70 68 66 64 62 61 63 62 61 60 59 57 55 53 53 55 58 61 66 70 72 72 71 71 65 61 65 72 73 71 67 60 52 45 42 41 47 57 64 64
74 71 69 66 65 66 66 64 67 73 78 79 78 77 77 77 75 74 73 71 71 72 72 69 68 68 70 71 71 69 68 68 67 65 64 64 63 62 60 59 57 55 53 51 53 57 61 66 65 63 61 62 61 57 54 55 61 63 64 62 55 46 39 35 34 38 46 55 57
79 76 74 72 71 71 71 68 67 70 73 75 74 74 75 74 73 72 72 75 75 73 72 70 71 71 71 71 70 70 70 71 71 70 67 65 64 63 62 61 59 58 56 52 53 56 60 64 63 60 58 58 57 54 52 53 57 58 56 54 50 44 39 33 31 33 38 46 51
80 79 77 77 76 76 75 73 69 68 69 71 71 71 72 72 71 72 75 77 75 72 70 69 71 73 73 72 71 71 72 74 75 73 70 67 65 65 65 64 63 62 59 54 53 54 58 61 62 61 58 56 56 54 52 53 56 56 55 50 48 45 41 33 30 30 34 40 45
81 80 78 78 78 77 76 74 71 68 68 69 69 70 70 70 71 73 75 75 74 73 71 68 71 73 73 73 73 73 74 76 77 75 73 69 67 67 66 65 64 62 59 54 53 54 57 60 62 61 59 55 54 53 53 54 56 57 54 50 48 46 42 34 30 29 32 37 42
82 81 80 79 78 78 78 76 74 70 68 68 68 68 69 69 70 71 73 73 74 75 74 71 71 71 72 73 74 75 75 76 76 76 75 72 70 68 67 65 64 63 61 58 56 58 60 62 63 64 62 58 56 54 54 55 57 57 56 51 49 46 42 35 30 29 31 36 40
81 80 80 79 78 78 78 78 75 72 69 68 67 68 69 70 69 69 70 71 73 75 76 74 71 69 69 71 73 74 75 76 76 76 75 73 71 70 69 68 66 66 65 63 62 62 64 65 65 66 66 64 60 58 56 58 59 59 58 55 51 47 42 35 30 29 31 34 36
79 79 79 78 77 78 78 78 77 74 71 69 68 68 68 68 67 67 68 69 71 72 73 72 70 69 68 69 70 70 71 72 73 74 74 74 72 72 71 71 70 71 71 70 68 67 66 67 67 68 69 68 65 62 60 60 61 60 58 56 53 48 42 35 31 30 31 33 33
79 78 78 78 78 78 79 79 79 77 75 73 71 69 68 68 66 65 65 66 67 68 69 69 70 69 67 65 65 65 66 66 67 69 71 72 71 72 72 73 73 74 75 75 72 68 66 66 67 69 70 71 68 65 63 62 61 59 57 55 52 48 42 36 32 30 30 31 32
79 78 78 78 78 79 79 81 81 81 80 78 74 72 69 69 67 65 64 64 65 65 66 66 67 66 65 62 60 60 61 62 62 63 64 66 67 68 69 70 71 73 74 76 74 70 67 65 66 68 70 71 69 67 65 63 62 59 56 53 50 46 41 36 33 30 29 30 30
79 79 79 78 78 79 80 81 82 83 82 80 77 74 71 71 70 69 67 65 66 66 67 66 65 65 65 63 61 60 61 61 60 59 58 57 58 60 62 63 65 68 71 74 74 73 71 69 68 69 70 70 69 68 66 64 63 60 57 53 49 45 40 35 32 30 30 29 27
78 78 78 77 77 78 79 80 81 81 80 79 77 75 73 72 72 72 70 68 68 69 70 69 68 67 67 67 65 64 63 63 61 57 53 49 49 51 54 57 61 66 70 74 75 75 75 73 72 72 72 71 69 67 65 63 61 58 55 52 47 42 38 34 31 29 29 28 26
77 77 76 76 76 76 76 77 79 79 79 78 76 75 73 71 71 71 71 70 69 69 70 71 71 71 70 70 69 66 63 62 59 55 50 46 44 46 49 55 63 69 75 79 79 79 77 76 74 74 74 73 70 67 63 60 58 54 51 49 44 40 36 32 30 28 27 26 24
74 75 75 75 75 74 74 75 76 77 77 77 75 74 72 71 70 70 70 71 69 68 68 67 69 70 71 71 70 67 63 60 56 52 48 44 42 42 46 56 68 76 82 84 84 83 81 79 76 75 73 71 69 66 62 59 55 51 47 44 40 35 32 31 29 27 26 24 20
72 72 72 72 73 73 73 73 74 75 76 75 74 73 72 70 70 70 70 70 69 68 66 64 64 65 66 68 68 67 65 60 55 50 45 41 39 40 45 58 72 82 88 90 88 86 83 79 76 74 71 69 66 63 61 60 57 52 46 40 35 31 28 27 26 25 24 21 17
70 70 69 69 70 72 73 73 73 74 74 74 73 72 72 70 70 69 69 68 68 67 66 64 62 61 61 62 63 64 63 60 54 48 42 38 36 36 43 56 72 84 92 94 91 88 84 78 74 71 69 69 65 62 60 60 58 54 48 40 34 29 25 22 22 21 20 18 14
70 70 70 71 71 71 72 72 72 72 72 71 71 71 71 71 70 69 68 66 65 65 65 64 62 59 58 57 57 59 59 57 52 44 37 33 32 32 36 47 64 82 96 102 96 91 88 83 76 71 68 68 66 64 62 60 59 57 52 45 37 30 23 18 17 17 16 14 11
71 73 75 76 76 74 73 72 71 71 70 69 69 70 70 70 69 69 68 65 64 63 64 64 61 59 56 54 53 54 54 53 49 43 37 31 29 28 29 32 39 58 98 109 96 92 88 85 82 77 71 69 69 66 63 60 59 58 56 51 43 34 26 18 14 11 10 9 6
73 75 77 78 78 76 74 72 71 70 69 68 67 67 67 67 67 66 66 64 61 60 59 59 59 58 57 54 52 51 50 49 45 42 39 35 30 27 25 22 14 12 77 99 93 89 85 81 81 81 79 74 74 72 66 60 56 56 55 52 47 40 32 22 12 6 3 3 360
72 74 75 76 75 73 72 70 69 68 66 65 65 64 64 63 63 64 63 63 61 58 57 56 57 58 58 56 53 50 48 44 41 40 39 38 33 28 22 16 4 5 71 92 92 89 85 81 82 84 86 87 85 81 76 65 54 50 50 47 44 41 36 27 13 5 360 357 354
71 72 73 72 70 69 68 67 66 65 64 63 64 65 65 64 64 64 64 63 61 58 56 54 54 55 57 55 51 49 46 41 38 36 35 35 33 27 20 10 358 19 73 90 91 90 88 85 84 86 89 92 89 83 76 68 54 47 43 42 39 36 33 26 15 6 0 354 351
70 71 71 70 68 66 65 64 64 64 64 65 67 68 69 68 66 65 63 61 59 57 56 55 55 56 55 52 49 46 42 39 36 34 33 32 29 24 16 7 355 19 69 87 91 89 86 82 81 81 82 84 84 78 69 63 54 45 39 36 34 30 26 20 13 7 1 355 351
69 70 70 70 68 66 64 62 63 64 66 68 69 69 69 67 64 61 60 59 58 57 57 58 58 57 54 50 48 45 41 36 34 33 33 32 28 22 14 6 356 24 71 84 88 86 82 77 75 74 75 75 77 75 67 59 52 45 38 32 28 25 21 17 12 8 2 355 351
66 67 68 68 66 64 62 61 61 63 65 67 67 66 65 63 60 57 56 57 57 56 56 57 57 55 52 49 47 45 42 37 35 34 34 33 30 23 14 5 359 31 68 79 83 82 78 73 71 70 70 68 69 68 62 54 49 45 39 31 26 21 17 15 12 7 1 356 353
62 64 66 66 64 62 60 59 61 63 65 66 65 64 62 60 58 56 55 55 55 54 53 54 54 52 50 47 47 46 43 41 37 35 34 34 31 25 18 10 5 35 64 75 77 77 74 70 68 66 64 62 63 61 54 50 45 42 37 32 26 20 15 14 11 5 360 355 351
61 64 66 67 66 64 62 61 62 63 64 63 61 61 60 59 57 56 55 54 55 55 55 55 55 54 52 49 48 47 45 44 40 37 35 34 34 31 25 14 6 34 58 72 75 75 73 68 65 62 60 58 59 54 46 42 37 34 30 25 19 16 14 13 10 4 357 350 344
61 64 66 67 66 64 62 60 61 61 61 60 58 57 57 57 57 57 57 57 59 59 59 58 58 57 55 53 53 50 47 44 39 36 33 32 35 34 29 19 6 24 44 67 73 76 76 71 65 61 58 57 56 50 41 36 30 25 20 14 10 8 7 9 7 2 356 348 343
59 63 65 64 63 61 60 58 58 59 60 60 58 56 55 56 57 58 60 63 64 63 60 58 58 57 54 51 51 50 47 43 38 35 34 34 35 34 29 19 7 14 29 55 65 73 77 75 67 62 58 58 56 50 43 37 29 21 15 11 8 6 4 3 2 359 355 350 345
56 62 64 64 62 60 59 59 60 61 61 61 59 57 55 54 53 55 59 63 64 63 59 56 54 52 50 47 45 44 42 41 37 35 34 35 36 33 28 18 7 8 16 38 52 61 68 73 68 63 59 57 54 49 45 41 30 21 14 12 7 3 1 1 359 357 355 351 346
55 61 66 67 65 63 62 63 64 64 63 62 61 60 58 55 51 50 52 58 60 60 57 54 51 49 48 47 44 39 36 36 37 35 33 32 35 34 29 20 9 4 8 24 39 47 55 67 68 65 60 55 49 45 41 38 29 20 14 11 3 358 357 360 359 357 354 349 347
55 61 67 70 69 67 65 65 66 66 65 63 60 59 58 57 53 49 50 55 60 61 57 53 50 48 47 48 45 39 34 34 36 35 33 28 31 34 32 23 11 2 3 15 31 40 48 61 68 67 63 58 51 44 39 34 25 18 11 6 359 356 356 358 358 355 350 346 348
56 61 66 70 70 69 67 65 65 65 65 64 60 58 56 56 53 50 49 52 59 62 60 55 49 44 44 47 46 40 35 32 34 34 33 27 29 33 34 27 13 2 2 12 27 36 45 54 62 65 65 65 59 49 39 33 24 14 7 1 359 357 355 355 354 350 344 339 345
56 59 63 67 68 69 68 66 64 63 63 63 61 59 58 59 57 54 52 52 55 59 60 58 48 42 43 48 48 43 36 32 30 31 31 28 30 32 31 26 13 3 2 10 24 32 38 42 48 53 59 66 58 47 39 33 24 13 4 358 358 356 353 349 347 344 339 334 339
55 58 61 63 64 67 68 68 64 62 60 61 62 62 62 63 59 55 53 52 53 55 57 56 48 43 43 46 48 44 39 34 29 28 29 30 31 29 27 21 12 4 2 8 22 29 32 31 32 36 42 53 49 42 35 32 26 14 3 355 356 355 352 347 345 344 340 336 333